map of HKT home
Great Circle Mapper logo
HKT - Airport
Location
City:  Phuket, Thailand
Name:Phuket International Airport
ICAO / IATA:VTSP / HKT

Details
Type:Airport (Aerodrome, Airfield)
Use:Public/Civil, International (customs port of entry)
Latitude:806'48"N (8.113200)
Longitude:9819'01"E (98.316872)
Datum:WGS 1984
Elevation:82 ft (25 m)
Runways:1
Longest:9843 × 148 ft (3000 × 45 m), paved

Time
Time Zone:UTC+7
Local Time:

Weather
METAR:VTSP 250500Z 27009KT 240V300 9999 FEW018 BKN300 31/23 Q1012 A2988 NOSIG
TAF:VTSP 241700Z 2418/2524 02004KT 8000 FEW018 SCT120 BKN300 PROB30
TEMPO 2418/2422 VRB10G20KT 4000 TSRA FEW016CB SCT020 BKN100
BECMG 2503/2505 28010KT
TEMPO 2509/2513 VRB10G20KT 4000 TSRA FEW016CB SCT020 BKN100

Related Locations
Nearby:
Farthest:SPYO: 12295 mi / 19787 km
Pacasmayo, PE

Find:

   beyond  
but within

Other Information
Maps:
NOTAMs:
Links:
Sources:

  
flag of Thailand   

Sectional Chart

Flight Planning
at skyvector.com

Satellite Image

Google Maps Satellite View

 

Copyright © 2004-2014 Karl L. Swartz. All rights reserved.
The Great Circle Mapper name and logo are trademarks of the Great Circle Mapper.
All other trademarks mentioned herein belong to their respective owners.
Please see credits for attibutions and further copyright information.

  Follow gcmap on Facebook Follow gcmap on Twitter

hCard Microformat

Geo Microformat